This demonstration page uses our WeatherBlox Daily Observations layout. Learn more.

38.89511, -77.03637

Hourly Observations for August 18, 2015

Temp ( °F °C ) Dew Point ( °F °C ) Humidity (%) Winds ( mph kmh ) Pressure ( in mb ) Visibility ( mi km ) Precip ( " mm )
12:52 am 00:52 Mostly Cloudy 77 25 70 21.1 79 79 S 8 13 30.06 1018 10 16.0934 0 0
1:52 am 01:52 Mostly Cloudy 76 24.4 70 21.1 82 82 S 6 9 30.05 1018 10 16.0934 0 0
2:52 am 02:52 Cloudy 75 23.9 70 21.1 84 84 SSW 6 9 30.04 1017 10 16.0934 0 0
3:52 am 03:52 Cloudy 74 23.3 70 21.1 88 88 Calm 30.04 1017 10 16.0934 0 0
4:52 am 04:52 Cloudy 74 23.3 71 21.7 91 91 ESE 5 7 30.02 1017 10 16.0934 0 0
5:52 am 05:52 Mostly Cloudy 74 23.3 71 21.7 91 91 SE 3 6 30.03 1017 10 16.0934 0 0
6:52 am 06:52 Mostly Cloudy 74 23.3 71 21.7 91 91 SE 5 7 30.03 1017 10 16.0934 0 0
7:52 am 07:52 Cloudy 75 23.9 71 21.7 88 88 Calm 30.03 1017 10 16.0934 0 0
8:52 am 08:52 Cloudy 77 25 72 22.2 85 85 S 3 6 30.03 1017 10 16.0934 0 0
9:52 am 09:52 Cloudy 82 27.8 72 22.2 72 72 Calm 30.02 1017 10 16.0934 0 0
10:52 am 10:52 Cloudy 84 28.9 73 22.8 70 70 Calm 30.02 1017 10 16.0934 0 0
11:52 am 11:52 Cloudy 87 30.6 71 21.7 59 59 Calm 30.01 1016 10 16.0934 0 0
12:52 pm 12:52 Cloudy 90 32.2 70 21.1 52 52 S 10 17 30 1016 10 16.0934 0 0
1:52 pm 13:52 Cloudy 89 31.7 72 22.2 57 57 S 10 17 29.99 1016 10 16.0934 0 0
2:52 pm 14:52 Cloudy 88 31.1 70 21.1 55 55 S 14 22 29.97 1015 10 16.0934 0 0
3:52 pm 15:52 Cloudy 87 30.6 73 22.8 63 63 SSW 10 17 29.96 1014 10 16.0934 0 0
4:52 pm 16:52 Mostly Cloudy 88 31.1 72 22.2 59 59 SSW 9 15 29.95 1014 10 16.0934 0 0
5:52 pm 17:52 Mostly Cloudy 86 30 69 20.6 57 57 S 8 13 29.95 1014 10 16.0934 0 0
6:52 pm 18:52 Mostly Cloudy 85 29.4 67 19.4 55 55 SSW 12 19 29.94 1014 10 16.0934 0 0
7:52 pm 19:52 Mostly Cloudy 83 28.3 69 20.6 63 63 S 10 17 29.95 1014 10 16.0934 0 0
8:52 pm 20:52 Mostly Cloudy 82 27.8 68 20 63 63 S 9 15 29.96 1015 10 16.0934 0 0
9:52 pm 21:52 Mostly Cloudy 80 26.7 71 21.7 74 74 S 9 15 29.97 1015 10 16.0934 0 0
10:52 pm 22:52 Mostly Cloudy 79 26.1 72 22.2 79 79 S 8 13 29.98 1015 10 16.0934 0 0
11:52 pm 23:52 Mostly Cloudy 78 25.6 73 22.8 85 85 S 9 15 29.98 1015 10 16.0934 0 0

Powered by AerisWeather